NKS9918 KFLL-KGYR

Flight info

Callsign NKS9918
Flight time 4h 50m
Altitude 32000
Route BNICE2 DOLIE CIGAR Y290 LEV IAH/N0472F340 JCT ELP J50 ALIBY J2 TUS SUNSS8
Aircraft A21N/M-SDE2E3FGHIRWXY/LB1

Departure

Time 2026-05-05 16:53
Airport Fort Lauderdale Hollywood International Airport (KFLL)

Arrival

Time 2026-05-05 21:43
Airport Phoenix Goodyear Airport (KGYR)
Time Latitude Longitude Altitude Speed Heading
2026-05-05 16:36 26.06857 -80.14910 21 ft 0 kts
2026-05-05 16:44 26.06858 -80.14910 21 ft 1 kts
2026-05-05 16:44 26.06875 -80.14910 21 ft 3 kts
2026-05-05 16:45 26.06902 -80.14911 21 ft 4 kts 348°
2026-05-05 16:45 26.06928 -80.14942 21 ft 7 kts 279°
2026-05-05 16:45 26.06930 -80.15008 21 ft 10 kts 270°
2026-05-05 16:45 26.06930 -80.15093 21 ft 12 kts 270°
2026-05-05 16:46 26.06935 -80.15167 21 ft 8 kts 301°
2026-05-05 16:46 26.06990 -80.15179 21 ft 9 kts
2026-05-05 16:46 26.07062 -80.15178 21 ft 11 kts
2026-05-05 16:46 26.07144 -80.15176 21 ft 13 kts
2026-05-05 16:47 26.07239 -80.15175 21 ft 14 kts
2026-05-05 16:47 26.07344 -80.15175 21 ft 16 kts 359°
2026-05-05 16:47 26.07446 -80.15175 21 ft 11 kts
2026-05-05 16:47 26.07524 -80.15173 21 ft 12 kts
2026-05-05 16:48 26.07568 -80.15196 21 ft 7 kts 277°
2026-05-05 16:48 26.07570 -80.15259 21 ft 9 kts 272°
2026-05-05 16:48 26.07571 -80.15336 21 ft 11 kts 270°
2026-05-05 16:48 26.07571 -80.15434 21 ft 14 kts 270°
2026-05-05 16:49 26.07571 -80.15556 21 ft 17 kts 270°
2026-05-05 16:49 26.07572 -80.15700 21 ft 20 kts 270°
2026-05-05 16:49 26.07574 -80.15852 21 ft 18 kts 270°
2026-05-05 16:49 26.07574 -80.15986 21 ft 17 kts 269°
2026-05-05 16:50 26.07574 -80.16115 21 ft 16 kts 270°
2026-05-05 16:50 26.07575 -80.16239 21 ft 16 kts 270°
2026-05-05 16:50 26.07575 -80.16358 21 ft 15 kts 270°
2026-05-05 16:50 26.07577 -80.16473 21 ft 15 kts 270°
2026-05-05 16:51 26.07578 -80.16565 21 ft 6 kts 271°
2026-05-05 16:51 26.07578 -80.16587 21 ft 0 kts 272°
2026-05-05 16:51 26.07578 -80.16590 21 ft 2 kts 272°
2026-05-05 16:51 26.07596 -80.16618 21 ft 7 kts 342°
2026-05-05 16:52 26.07661 -80.16618 21 ft 6 kts
2026-05-05 16:52 26.07694 -80.16592 21 ft 7 kts 76°
2026-05-05 16:52 26.07694 -80.16569 21 ft 0 kts 92°
2026-05-05 16:52 26.07692 -80.16468 21 ft 44 kts 90°
2026-05-05 16:53 26.07688 -80.15816 21 ft 122 kts 90°
2026-05-05 16:53 26.07683 -80.14653 186 ft 173 kts 90°
2026-05-05 16:53 26.07677 -80.13260 997 ft 191 kts 91°
2026-05-05 16:53 26.07639 -80.11741 1611 ft 201 kts 92°
2026-05-05 16:54 26.07723 -80.10172 2168 ft 205 kts 80°
2026-05-05 16:54 26.08234 -80.08684 2764 ft 210 kts 61°
2026-05-05 16:54 26.09207 -80.07455 3376 ft 216 kts 42°
2026-05-05 16:54 26.10507 -80.06592 3994 ft 220 kts 27°
2026-05-05 16:55 26.11931 -80.05942 4599 ft 224 kts 20°
2026-05-05 16:55 26.13474 -80.05556 5205 ft 230 kts 10°
2026-05-05 16:55 26.15104 -80.05330 5814 ft 240 kts
2026-05-05 16:55 26.16740 -80.05378 6388 ft 247 kts 351°
2026-05-05 16:56 26.18477 -80.05862 7030 ft 252 kts 342°
2026-05-05 16:56 26.20167 -80.06474 7635 ft 258 kts 337°
2026-05-05 16:56 26.21731 -80.07470 8236 ft 261 kts 322°
2026-05-05 16:56 26.23016 -80.08932 8841 ft 268 kts 305°
2026-05-05 16:57 26.23899 -80.10774 9461 ft 273 kts 292°
2026-05-05 16:57 26.24554 -80.12742 10065 ft 276 kts 289°
2026-05-05 16:57 26.25214 -80.14754 10672 ft 280 kts 289°
2026-05-05 16:57 26.25734 -80.16917 11284 ft 298 kts 280°
2026-05-05 16:58 26.26046 -80.19242 11897 ft 308 kts 278°
2026-05-05 16:58 26.26355 -80.21628 12503 ft 313 kts 278°
2026-05-05 16:58 26.26675 -80.24047 13109 ft 317 kts 279°
2026-05-05 16:58 26.27013 -80.26489 13709 ft 319 kts 279°
2026-05-05 16:59 26.27356 -80.28947 14313 ft 321 kts 279°
2026-05-05 16:59 26.27693 -80.31380 14907 ft 323 kts 279°
2026-05-05 16:59 26.28034 -80.33864 15510 ft 325 kts 280°
2026-05-05 16:59 26.28383 -80.36359 16113 ft 326 kts 280°
2026-05-05 17:00 26.28740 -80.38868 16716 ft 328 kts 281°
2026-05-05 17:00 26.29101 -80.41387 17319 ft 330 kts 281°
2026-05-05 17:00 26.29459 -80.43914 17921 ft 331 kts 281°
2026-05-05 17:00 26.29815 -80.46455 18523 ft 333 kts 281°
2026-05-05 17:01 26.30171 -80.49012 19125 ft 334 kts 281°
2026-05-05 17:01 26.30525 -80.51579 19726 ft 336 kts 281°
2026-05-05 17:01 26.30877 -80.54135 20321 ft 339 kts 281°
2026-05-05 17:01 26.31237 -80.56737 20923 ft 341 kts 281°
2026-05-05 17:02 26.31602 -80.59366 21526 ft 344 kts 281°
2026-05-05 17:02 26.31972 -80.62011 22129 ft 346 kts 281°
2026-05-05 17:02 26.32343 -80.64673 22730 ft 349 kts 281°
2026-05-05 17:02 26.32719 -80.67358 23333 ft 352 kts 281°
2026-05-05 17:03 26.33097 -80.70062 23934 ft 355 kts 281°
2026-05-05 17:03 26.33477 -80.72790 24536 ft 357 kts 281°
2026-05-05 17:03 26.33865 -80.75550 25129 ft 361 kts 281°
2026-05-05 17:03 26.34251 -80.78296 25649 ft 364 kts 281°
2026-05-05 17:04 26.34645 -80.81097 26156 ft 367 kts 281°
2026-05-05 17:04 26.35041 -80.83916 26658 ft 370 kts 282°
2026-05-05 17:04 26.35440 -80.86755 27160 ft 372 kts 282°
2026-05-05 17:04 26.35863 -80.89615 27661 ft 374 kts 285°
2026-05-05 17:05 26.36817 -80.92306 27950 ft 378 kts 301°
2026-05-05 17:05 26.38426 -80.94642 28043 ft 382 kts 310°
2026-05-05 17:05 26.42202 -80.98886 28084 ft 390 kts 314°
2026-05-05 17:06 26.44165 -81.00981 28347 ft 390 kts 315°
2026-05-05 17:06 26.46111 -81.03041 28760 ft 392 kts 315°
2026-05-05 17:06 26.48099 -81.05140 29206 ft 395 kts 315°
2026-05-05 17:06 26.50109 -81.07259 29657 ft 398 kts 315°
2026-05-05 17:07 26.52129 -81.09386 30109 ft 401 kts 315°
2026-05-05 17:07 26.54161 -81.11526 30560 ft 403 kts 315°
2026-05-05 17:07 26.56211 -81.13677 31013 ft 405 kts 316°
2026-05-05 17:07 26.58265 -81.15835 31464 ft 406 kts 316°
2026-05-05 17:08 26.60328 -81.18001 31879 ft 409 kts 316°
2026-05-05 17:08 26.62412 -81.20193 32004 ft 411 kts 316°
2026-05-05 17:08 26.66488 -81.24509 32065 ft 402 kts 316°
2026-05-05 17:09 26.70529 -81.28806 32067 ft 398 kts 315°
2026-05-05 17:09 26.74530 -81.33069 32068 ft 396 kts 315°
2026-05-05 17:10 26.78520 -81.37322 32070 ft 396 kts 315°
2026-05-05 17:10 26.82502 -81.41571 32072 ft 395 kts 315°
2026-05-05 17:11 26.86457 -81.45795 32073 ft 395 kts 315°
2026-05-05 17:11 26.90440 -81.50054 32074 ft 395 kts 315°
2026-05-05 17:12 26.94414 -81.54307 32073 ft 395 kts 315°
2026-05-05 17:12 26.98365 -81.58540 32079 ft 395 kts 315°
2026-05-05 17:13 27.02339 -81.62802 32081 ft 395 kts 315°
2026-05-05 17:13 27.06305 -81.67059 32081 ft 394 kts 315°
2026-05-05 17:14 27.10272 -81.71323 32084 ft 394 kts 315°
2026-05-05 17:14 27.14227 -81.75578 32084 ft 394 kts 315°
2026-05-05 17:15 27.16667 -81.78205 32081 ft 394 kts 315°
2026-05-05 17:15 27.20513 -81.82350 32079 ft 394 kts 315°
2026-05-05 17:16 27.24468 -81.86616 32079 ft 394 kts 315°
2026-05-05 17:16 27.27736 -81.91478 32075 ft 397 kts 294°
2026-05-05 17:17 27.28948 -81.97601 32083 ft 404 kts 283°
2026-05-05 17:17 27.29600 -82.03854 32079 ft 405 kts 281°
2026-05-05 17:18 27.30148 -82.10172 32078 ft 406 kts 280°
2026-05-05 17:18 27.30668 -82.16508 32077 ft 406 kts 280°
2026-05-05 17:19 27.31173 -82.22796 32077 ft 407 kts 280°
2026-05-05 17:19 27.31679 -82.29140 32077 ft 407 kts 280°
2026-05-05 17:20 27.32181 -82.35481 32077 ft 407 kts 280°
2026-05-05 17:20 27.32679 -82.41819 32077 ft 407 kts 280°
2026-05-05 17:21 27.33174 -82.48161 32077 ft 407 kts 280°
2026-05-05 17:22 27.33907 -82.57643 32079 ft 407 kts 280°
2026-05-05 17:22 27.34396 -82.63997 32079 ft 408 kts 280°
2026-05-05 17:23 27.34882 -82.70350 32078 ft 408 kts 280°
2026-05-05 17:23 27.35365 -82.76701 32078 ft 408 kts 280°
2026-05-05 17:24 27.35851 -82.83064 32077 ft 408 kts 280°
2026-05-05 17:24 27.36341 -82.89436 32077 ft 408 kts 280°
2026-05-05 17:25 27.36839 -82.95797 32077 ft 408 kts 280°
2026-05-05 17:25 27.37319 -83.02160 32076 ft 408 kts 279°
2026-05-05 17:26 27.37791 -83.08536 32076 ft 409 kts 279°
2026-05-05 17:26 27.38180 -83.13843 32076 ft 409 kts 279°
2026-05-05 17:27 27.38551 -83.18936 32076 ft 409 kts 279°
2026-05-05 17:27 27.39084 -83.26359 32076 ft 409 kts 279°
2026-05-05 17:28 27.39466 -83.31668 32076 ft 409 kts 279°
2026-05-05 17:28 27.39923 -83.38046 32076 ft 409 kts 279°
2026-05-05 17:29 27.40380 -83.44426 32076 ft 409 kts 279°
2026-05-05 17:29 27.40838 -83.50799 32082 ft 409 kts 279°
2026-05-05 17:30 27.41298 -83.57167 32084 ft 409 kts 279°
2026-05-05 17:30 27.41765 -83.63541 32084 ft 408 kts 279°
2026-05-05 17:31 27.42215 -83.69916 32084 ft 408 kts 279°
2026-05-05 17:31 27.42656 -83.76285 32084 ft 408 kts 279°
2026-05-05 17:32 27.43091 -83.82630 32085 ft 408 kts 279°
2026-05-05 17:32 27.43524 -83.88998 32085 ft 408 kts 279°
2026-05-05 17:33 27.43955 -83.95378 32085 ft 408 kts 279°
2026-05-05 17:33 27.44383 -84.01748 32085 ft 408 kts 279°
2026-05-05 17:34 27.44808 -84.08136 32085 ft 408 kts 279°
2026-05-05 17:34 27.45232 -84.14480 32085 ft 409 kts 279°
2026-05-05 17:35 27.45663 -84.20862 32085 ft 409 kts 279°
2026-05-05 17:35 27.46098 -84.27252 32085 ft 409 kts 279°
2026-05-05 17:36 27.46521 -84.33594 32085 ft 409 kts 278°
2026-05-05 17:36 27.46935 -84.39983 32085 ft 409 kts 278°
2026-05-05 17:37 27.47344 -84.46367 32085 ft 409 kts 278°
2026-05-05 17:37 27.47747 -84.52769 32085 ft 409 kts 278°
2026-05-05 17:38 27.48147 -84.59134 32085 ft 409 kts 278°
2026-05-05 17:38 27.48546 -84.65527 32085 ft 410 kts 278°
2026-05-05 17:39 27.48943 -84.71927 32085 ft 410 kts 278°
2026-05-05 17:39 27.49348 -84.78336 32086 ft 409 kts 280°
2026-05-05 17:40 27.50347 -84.84604 32087 ft 406 kts 285°
2026-05-05 17:40 27.51522 -84.90838 32086 ft 406 kts 285°
2026-05-05 17:41 27.52643 -84.97044 32085 ft 407 kts 285°
2026-05-05 17:41 27.53747 -85.03301 32085 ft 407 kts 284°
2026-05-05 17:42 27.54845 -85.09570 32083 ft 407 kts 284°
2026-05-05 17:42 27.55937 -85.15833 32082 ft 407 kts 284°
2026-05-05 17:43 27.57016 -85.22051 32082 ft 407 kts 284°
2026-05-05 17:43 27.58099 -85.28306 32082 ft 406 kts 284°
2026-05-05 17:44 27.59197 -85.34563 32082 ft 405 kts 287°
2026-05-05 17:44 27.60913 -85.40598 32084 ft 403 kts 292°
2026-05-05 17:45 27.62781 -85.46568 32083 ft 403 kts 292°
2026-05-05 17:45 27.64608 -85.52541 32082 ft 403 kts 291°
2026-05-05 17:46 27.66407 -85.58531 32083 ft 403 kts 291°
2026-05-05 17:46 27.68194 -85.64521 32079 ft 403 kts 291°
2026-05-05 17:47 27.69978 -85.70513 32078 ft 402 kts 291°
2026-05-05 17:47 27.71751 -85.76503 32079 ft 402 kts 291°
2026-05-05 17:48 27.73509 -85.82444 32079 ft 402 kts 291°
2026-05-05 17:48 27.75277 -85.88428 32078 ft 401 kts 291°
2026-05-05 17:49 27.77044 -85.94405 32078 ft 401 kts 291°
2026-05-05 17:49 27.78809 -86.00380 32078 ft 401 kts 291°
2026-05-05 17:50 27.80578 -86.06363 32077 ft 401 kts 291°
2026-05-05 17:50 27.82344 -86.12329 32078 ft 400 kts 291°
2026-05-05 17:51 27.84104 -86.18262 32077 ft 400 kts 291°
2026-05-05 17:51 27.85863 -86.24240 32077 ft 401 kts 291°
2026-05-05 17:52 27.87614 -86.30226 32076 ft 401 kts 291°
2026-05-05 17:52 27.89363 -86.36222 32076 ft 401 kts 291°
2026-05-05 17:53 27.91108 -86.42222 32075 ft 401 kts 291°
2026-05-05 17:53 27.92850 -86.48224 32075 ft 402 kts 290°
2026-05-05 17:54 27.94582 -86.54200 32074 ft 402 kts 290°
2026-05-05 17:54 27.96323 -86.60219 32069 ft 403 kts 290°
2026-05-05 17:55 27.98066 -86.66256 32069 ft 403 kts 290°
2026-05-05 17:55 27.99810 -86.72299 32069 ft 403 kts 290°
2026-05-05 17:56 28.01561 -86.78295 32069 ft 402 kts 291°
2026-05-05 17:56 28.03356 -86.84289 32068 ft 401 kts 291°
2026-05-05 17:57 28.05132 -86.90271 32064 ft 401 kts 290°
2026-05-05 17:57 28.06902 -86.96253 32064 ft 401 kts 290°
2026-05-05 17:58 28.08674 -87.02237 32064 ft 401 kts 290°
2026-05-05 17:58 28.10453 -87.08222 32065 ft 400 kts 290°
2026-05-05 17:59 28.12240 -87.14197 32065 ft 400 kts 290°
2026-05-05 17:59 28.14012 -87.20182 32065 ft 401 kts 290°
2026-05-05 18:00 28.15768 -87.26150 32065 ft 401 kts 290°
2026-05-05 18:00 28.17525 -87.32161 32066 ft 402 kts 290°
2026-05-05 18:01 28.19284 -87.38178 32065 ft 402 kts 290°
2026-05-05 18:01 28.21045 -87.44209 32064 ft 403 kts 290°
2026-05-05 18:02 28.22807 -87.50254 32065 ft 403 kts 290°
2026-05-05 18:02 28.24554 -87.56257 32065 ft 404 kts 290°
2026-05-05 18:03 28.26318 -87.62315 32065 ft 404 kts 290°
2026-05-05 18:03 28.28092 -87.68369 32065 ft 404 kts 290°
2026-05-05 18:04 28.29866 -87.74416 32066 ft 404 kts 290°
2026-05-05 18:04 28.31628 -87.80486 32066 ft 405 kts 290°
2026-05-05 18:05 28.33382 -87.86564 32067 ft 405 kts 290°
2026-05-05 18:05 28.35121 -87.92602 32067 ft 405 kts 290°
2026-05-05 18:06 28.36870 -87.98687 32068 ft 405 kts 289°
2026-05-05 18:06 28.38689 -88.04738 32068 ft 405 kts 293°
2026-05-05 18:07 28.40973 -88.10576 32069 ft 404 kts 295°
2026-05-05 18:07 28.43307 -88.16393 32069 ft 404 kts 295°
2026-05-05 18:08 28.45606 -88.22220 32069 ft 404 kts 295°
2026-05-05 18:08 28.47873 -88.28026 32069 ft 403 kts 295°
2026-05-05 18:09 28.50148 -88.33858 32069 ft 403 kts 294°
2026-05-05 18:09 28.52420 -88.39689 32069 ft 403 kts 294°
2026-05-05 18:10 28.54669 -88.45470 32068 ft 402 kts 294°
2026-05-05 18:10 28.56932 -88.51297 32067 ft 402 kts 294°
2026-05-05 18:11 28.59195 -88.57115 32066 ft 401 kts 294°
2026-05-05 18:11 28.61451 -88.62914 32065 ft 401 kts 295°
2026-05-05 18:12 28.63711 -88.68712 32064 ft 400 kts 295°
2026-05-05 18:12 28.65967 -88.74502 32063 ft 400 kts 294°
2026-05-05 18:13 28.68193 -88.80255 32061 ft 399 kts 294°
2026-05-05 18:13 28.70423 -88.86043 32060 ft 399 kts 294°
2026-05-05 18:14 28.72649 -88.91835 32059 ft 398 kts 294°
2026-05-05 18:14 28.74494 -88.96642 32058 ft 398 kts 294°
2026-05-05 18:15 28.76710 -89.02424 32057 ft 398 kts 294°
2026-05-05 18:15 28.78921 -89.08204 32056 ft 398 kts 294°
2026-05-05 18:16 28.81126 -89.13985 32054 ft 397 kts 294°
2026-05-05 18:16 28.83317 -89.19738 32049 ft 398 kts 294°
2026-05-05 18:17 28.85078 -89.24326 32041 ft 400 kts 294°
2026-05-05 18:17 28.87301 -89.30154 32037 ft 401 kts 293°
2026-05-05 18:18 28.89522 -89.35999 32032 ft 402 kts 293°
2026-05-05 18:18 28.91734 -89.41831 32031 ft 402 kts 293°
2026-05-05 18:19 28.93956 -89.47700 32029 ft 402 kts 293°
2026-05-05 18:19 28.96170 -89.53569 32027 ft 402 kts 293°
2026-05-05 18:20 28.98382 -89.59441 32026 ft 402 kts 293°
2026-05-05 18:20 29.00585 -89.65280 32025 ft 402 kts 293°
2026-05-05 18:21 29.02803 -89.71154 32022 ft 402 kts 293°
2026-05-05 18:21 29.05024 -89.77022 32020 ft 402 kts 293°
2026-05-05 18:22 29.07246 -89.82888 32019 ft 402 kts 293°
2026-05-05 18:22 29.09456 -89.88763 32018 ft 401 kts 293°
2026-05-05 18:23 29.11641 -89.94603 32018 ft 401 kts 293°
2026-05-05 18:23 29.13830 -90.00467 32017 ft 401 kts 293°
2026-05-05 18:24 29.16011 -90.06346 32017 ft 401 kts 292°
2026-05-05 18:24 29.17974 -90.12314 32017 ft 401 kts 285°
2026-05-05 18:25 29.19034 -90.18596 32019 ft 402 kts 282°
2026-05-05 18:25 29.19805 -90.23527 32018 ft 402 kts 282°
2026-05-05 18:26 29.20835 -90.29819 32017 ft 401 kts 282°
2026-05-05 18:26 29.21879 -90.36094 32016 ft 401 kts 282°
2026-05-05 18:27 29.22919 -90.42332 32016 ft 401 kts 282°
2026-05-05 18:27 29.23964 -90.48612 32015 ft 401 kts 282°
2026-05-05 18:28 29.25526 -90.58037 32014 ft 402 kts 282°
2026-05-05 18:28 29.26559 -90.64322 32013 ft 401 kts 282°
2026-05-05 18:29 29.27592 -90.70605 32008 ft 401 kts 282°
2026-05-05 18:29 29.28625 -90.76892 32006 ft 402 kts 282°
2026-05-05 18:30 29.29660 -90.83188 32005 ft 402 kts 282°
2026-05-05 18:30 29.30698 -90.89481 32004 ft 402 kts 282°
2026-05-05 18:31 29.31734 -90.95738 32003 ft 402 kts 282°
2026-05-05 18:31 29.32777 -91.02041 32002 ft 402 kts 282°
2026-05-05 18:32 29.33802 -91.08339 32000 ft 402 kts 282°
2026-05-05 18:32 29.34813 -91.14633 31999 ft 401 kts 282°
2026-05-05 18:33 29.35823 -91.20926 31997 ft 401 kts 282°
2026-05-05 18:33 29.36827 -91.27190 31996 ft 401 kts 282°
2026-05-05 18:34 29.37833 -91.33481 31993 ft 401 kts 282°
2026-05-05 18:34 29.38834 -91.39767 31986 ft 400 kts 281°
2026-05-05 18:35 29.39824 -91.46007 31984 ft 400 kts 281°
2026-05-05 18:35 29.40818 -91.52284 31984 ft 399 kts 281°
2026-05-05 18:36 29.41814 -91.58555 31982 ft 399 kts 281°
2026-05-05 18:36 29.42811 -91.64815 31981 ft 399 kts 281°
2026-05-05 18:37 29.43813 -91.71077 31980 ft 399 kts 281°
2026-05-05 18:37 29.44795 -91.77291 31978 ft 398 kts 281°
2026-05-05 18:38 29.45773 -91.83545 31976 ft 398 kts 281°
2026-05-05 18:38 29.46540 -91.88469 31975 ft 397 kts 281°
2026-05-05 18:39 29.47508 -91.94720 31961 ft 397 kts 281°
2026-05-05 18:39 29.48471 -92.00956 31957 ft 397 kts 281°
2026-05-05 18:40 29.49425 -92.07197 31955 ft 396 kts 281°
2026-05-05 18:40 29.50379 -92.13425 31954 ft 396 kts 281°
2026-05-05 18:41 29.51325 -92.19614 31954 ft 396 kts 281°
2026-05-05 18:41 29.52274 -92.25847 31953 ft 396 kts 281°
2026-05-05 18:42 29.53221 -92.32078 31953 ft 396 kts 281°
2026-05-05 18:42 29.54162 -92.38276 31951 ft 396 kts 281°
2026-05-05 18:43 29.55117 -92.44552 31948 ft 396 kts 281°
2026-05-05 18:43 29.56064 -92.50750 31946 ft 397 kts 281°
2026-05-05 18:44 29.57018 -92.56989 31945 ft 397 kts 281°
2026-05-05 18:44 29.57958 -92.63235 31944 ft 397 kts 281°
2026-05-05 18:45 29.58891 -92.69492 31942 ft 397 kts 281°
2026-05-05 18:45 29.59821 -92.75753 31943 ft 397 kts 280°
2026-05-05 18:46 29.60735 -92.81967 31940 ft 397 kts 280°
2026-05-05 18:46 29.61653 -92.88216 31938 ft 397 kts 280°
2026-05-05 18:47 29.62573 -92.94480 31937 ft 397 kts 280°
2026-05-05 18:47 29.63499 -93.00737 31936 ft 397 kts 280°
2026-05-05 18:48 29.64431 -93.06997 31931 ft 397 kts 280°
2026-05-05 18:48 29.65349 -93.13213 31930 ft 396 kts 280°
2026-05-05 18:49 29.66256 -93.19457 31933 ft 396 kts 280°
2026-05-05 18:49 29.67160 -93.25711 31934 ft 395 kts 280°
2026-05-05 18:50 29.67928 -93.31071 31934 ft 395 kts 279°
2026-05-05 18:50 29.68814 -93.37271 31935 ft 395 kts 279°
2026-05-05 18:51 29.69704 -93.43497 31938 ft 394 kts 279°
2026-05-05 18:51 29.70591 -93.49723 31939 ft 394 kts 279°
2026-05-05 18:52 29.71476 -93.55936 31938 ft 393 kts 279°
2026-05-05 18:52 29.72358 -93.62134 31938 ft 392 kts 279°
2026-05-05 18:53 29.73248 -93.68286 31938 ft 392 kts 279°
2026-05-05 18:53 29.74135 -93.74467 31938 ft 391 kts 279°
2026-05-05 18:54 29.75005 -93.80640 31935 ft 391 kts 279°
2026-05-05 18:54 29.75869 -93.86815 31922 ft 390 kts 279°
2026-05-05 18:55 29.76728 -93.92983 31919 ft 390 kts 279°
2026-05-05 18:55 29.77583 -93.99144 31917 ft 390 kts 279°
2026-05-05 18:56 29.78435 -94.05313 31913 ft 390 kts 279°
2026-05-05 18:56 29.79279 -94.11443 31910 ft 390 kts 279°
2026-05-05 18:57 29.80125 -94.17609 31909 ft 390 kts 279°
2026-05-05 18:57 29.80970 -94.23786 31909 ft 390 kts 279°
2026-05-05 18:58 29.81811 -94.29954 31909 ft 390 kts 279°
2026-05-05 18:58 29.82653 -94.36091 31909 ft 390 kts 279°
2026-05-05 18:59 29.83505 -94.42256 31909 ft 390 kts 279°
2026-05-05 18:59 29.84357 -94.48448 31909 ft 390 kts 279°
2026-05-05 19:00 29.85194 -94.54641 31909 ft 391 kts 279°
2026-05-05 19:00 29.86013 -94.60806 31902 ft 391 kts 278°
2026-05-05 19:01 29.86838 -94.67009 31898 ft 392 kts 278°
2026-05-05 19:01 29.87660 -94.73215 31896 ft 392 kts 278°
2026-05-05 19:02 29.88338 -94.78381 31895 ft 392 kts 278°
2026-05-05 19:02 29.89159 -94.84606 31893 ft 393 kts 278°
2026-05-05 19:03 29.89990 -94.90833 31893 ft 393 kts 278°
2026-05-05 19:03 29.90825 -94.97070 31888 ft 393 kts 278°
2026-05-05 19:04 29.91630 -95.03192 31886 ft 393 kts 278°
2026-05-05 19:04 29.92438 -95.09439 31886 ft 393 kts 278°
2026-05-05 19:05 29.93245 -95.15687 31884 ft 393 kts 278°
2026-05-05 19:05 29.94046 -95.21912 31879 ft 393 kts 277°
2026-05-05 19:06 29.94845 -95.28121 31878 ft 393 kts 277°
2026-05-05 19:06 29.95660 -95.34369 31879 ft 394 kts 278°
2026-05-05 19:07 29.96635 -95.40583 31878 ft 394 kts 279°
2026-05-05 19:07 29.97641 -95.46757 31876 ft 393 kts 279°
2026-05-05 19:08 29.98631 -95.52970 31876 ft 393 kts 279°
2026-05-05 19:08 29.99610 -95.59130 31871 ft 393 kts 279°
2026-05-05 19:09 30.00593 -95.65333 31871 ft 393 kts 279°
2026-05-05 19:09 30.01573 -95.71525 31873 ft 392 kts 279°
2026-05-05 19:10 30.02559 -95.77715 31876 ft 392 kts 279°
2026-05-05 19:10 30.03554 -95.83897 31876 ft 392 kts 279°
2026-05-05 19:11 30.04536 -95.90104 31876 ft 392 kts 278°
2026-05-05 19:11 30.05498 -95.96258 31875 ft 392 kts 278°
2026-05-05 19:12 30.06469 -96.02492 31874 ft 392 kts 278°
2026-05-05 19:12 30.07423 -96.08648 31871 ft 392 kts 278°
2026-05-05 19:13 30.08381 -96.14849 31867 ft 392 kts 278°
2026-05-05 19:13 30.09336 -96.21051 31862 ft 392 kts 278°
2026-05-05 19:14 30.10289 -96.27259 31857 ft 392 kts 278°
2026-05-05 19:14 30.11231 -96.33418 31853 ft 392 kts 278°
2026-05-05 19:15 30.12177 -96.39623 31851 ft 392 kts 278°
2026-05-05 19:15 30.13119 -96.45821 31851 ft 392 kts 278°
2026-05-05 19:16 30.14067 -96.52025 31852 ft 392 kts 278°
2026-05-05 19:16 30.15025 -96.58219 31853 ft 391 kts 278°
2026-05-05 19:17 30.15972 -96.64414 31860 ft 391 kts 278°
2026-05-05 19:17 30.16893 -96.70569 31870 ft 391 kts 278°
2026-05-05 19:18 30.17812 -96.76761 31883 ft 390 kts 278°
2026-05-05 19:18 30.18730 -96.82952 31889 ft 390 kts 278°
2026-05-05 19:19 30.19648 -96.89144 31894 ft 390 kts 277°
2026-05-05 19:19 30.20575 -96.95343 31897 ft 390 kts 277°
2026-05-05 19:20 30.21500 -97.01480 31898 ft 390 kts 277°
2026-05-05 19:20 30.22416 -97.07662 31896 ft 390 kts 277°
2026-05-05 19:21 30.23324 -97.13846 31891 ft 390 kts 277°
2026-05-05 19:21 30.24219 -97.20024 31885 ft 390 kts 277°
2026-05-05 19:22 30.25117 -97.26208 31877 ft 389 kts 277°
2026-05-05 19:22 30.26016 -97.32385 31870 ft 389 kts 277°
2026-05-05 19:23 30.26914 -97.38540 31862 ft 390 kts 277°
2026-05-05 19:23 30.27610 -97.43271 31857 ft 390 kts 277°
2026-05-05 19:24 30.28512 -97.49476 31851 ft 390 kts 276°
2026-05-05 19:24 30.29396 -97.55629 31847 ft 390 kts 276°
2026-05-05 19:25 30.30277 -97.61836 31845 ft 390 kts 276°
2026-05-05 19:25 30.31157 -97.68036 31846 ft 390 kts 276°
2026-05-05 19:26 30.32035 -97.74236 31848 ft 391 kts 276°
2026-05-05 19:26 30.32912 -97.80451 31849 ft 391 kts 276°
2026-05-05 19:27 30.33788 -97.86673 31853 ft 391 kts 276°
2026-05-05 19:27 30.34654 -97.92848 31860 ft 391 kts 276°
2026-05-05 19:28 30.35523 -97.99060 31868 ft 391 kts 276°
2026-05-05 19:28 30.36400 -98.05282 31871 ft 391 kts 276°
2026-05-05 19:29 30.37286 -98.11495 31870 ft 391 kts 276°
2026-05-05 19:29 30.38149 -98.17715 31866 ft 391 kts 276°
2026-05-05 19:30 30.39005 -98.23931 31859 ft 391 kts 276°
2026-05-05 19:30 30.39854 -98.30116 31852 ft 391 kts 276°
2026-05-05 19:31 30.40702 -98.36331 31843 ft 390 kts 276°
2026-05-05 19:31 30.41554 -98.42547 31840 ft 390 kts 276°
2026-05-05 19:32 30.42399 -98.48748 31839 ft 390 kts 276°
2026-05-05 19:32 30.43237 -98.54962 31839 ft 390 kts 275°
2026-05-05 19:33 30.44072 -98.61170 31840 ft 390 kts 275°
2026-05-05 19:33 30.44904 -98.67333 31841 ft 390 kts 275°
2026-05-05 19:34 30.45755 -98.73549 31845 ft 389 kts 275°
2026-05-05 19:35 30.47010 -98.82848 31846 ft 389 kts 275°
2026-05-05 19:35 30.47828 -98.89044 31847 ft 389 kts 275°
2026-05-05 19:36 30.48645 -98.95256 31848 ft 389 kts 275°
2026-05-05 19:36 30.49455 -99.01425 31849 ft 389 kts 275°
2026-05-05 19:37 30.50270 -99.07637 31850 ft 389 kts 275°
2026-05-05 19:37 30.51087 -99.13838 31844 ft 389 kts 275°
2026-05-05 19:38 30.51909 -99.20042 31842 ft 389 kts 275°
2026-05-05 19:38 30.52723 -99.26242 31840 ft 389 kts 275°
2026-05-05 19:39 30.53527 -99.32452 31840 ft 389 kts 274°
2026-05-05 19:39 30.54321 -99.38618 31843 ft 389 kts 274°
2026-05-05 19:40 30.55110 -99.44825 31843 ft 389 kts 274°
2026-05-05 19:40 30.55897 -99.51034 31842 ft 389 kts 274°
2026-05-05 19:41 30.56685 -99.57248 31841 ft 388 kts 274°
2026-05-05 19:41 30.57471 -99.63453 31841 ft 388 kts 274°
2026-05-05 19:42 30.58256 -99.69659 31840 ft 388 kts 274°
2026-05-05 19:42 30.59048 -99.75824 31839 ft 389 kts 274°
2026-05-05 19:43 30.59872 -99.82038 31840 ft 390 kts 276°
2026-05-05 19:43 30.61137 -99.88190 31843 ft 392 kts 279°
2026-05-05 19:44 30.62486 -99.94296 31843 ft 392 kts 279°
2026-05-05 19:44 30.63824 -100.00480 31845 ft 392 kts 278°
2026-05-05 19:45 30.65131 -100.06578 31848 ft 391 kts 278°
2026-05-05 19:45 30.66440 -100.12713 31853 ft 391 kts 278°
2026-05-05 19:46 30.67752 -100.18852 31858 ft 391 kts 278°
2026-05-05 19:46 30.69056 -100.24942 31864 ft 391 kts 278°
2026-05-05 19:47 30.70362 -100.31080 31870 ft 391 kts 278°
2026-05-05 19:47 30.71661 -100.37228 31876 ft 391 kts 278°
2026-05-05 19:48 30.72751 -100.42405 31880 ft 391 kts 278°
2026-05-05 19:48 30.74041 -100.48550 31885 ft 391 kts 278°
2026-05-05 19:49 30.75329 -100.54699 31889 ft 391 kts 278°
2026-05-05 19:49 30.76395 -100.59813 31890 ft 391 kts 278°
2026-05-05 19:50 30.77891 -100.66997 31891 ft 391 kts 278°
2026-05-05 19:50 30.78951 -100.72101 31891 ft 390 kts 278°
2026-05-05 19:51 30.80223 -100.78241 31889 ft 390 kts 278°
2026-05-05 19:51 30.81494 -100.84385 31889 ft 390 kts 277°
2026-05-05 19:52 30.82775 -100.90525 31888 ft 390 kts 278°
2026-05-05 19:52 30.84054 -100.96629 31887 ft 390 kts 277°
2026-05-05 19:53 30.85324 -101.02772 31887 ft 390 kts 277°
2026-05-05 19:53 30.86583 -101.08914 31887 ft 390 kts 277°
2026-05-05 19:54 30.87829 -101.15056 31887 ft 390 kts 277°
2026-05-05 19:54 30.89078 -101.21206 31887 ft 390 kts 277°
2026-05-05 19:55 30.90319 -101.27318 31886 ft 390 kts 277°
2026-05-05 19:55 30.91564 -101.33467 31885 ft 390 kts 277°
2026-05-05 19:56 30.92807 -101.39618 31884 ft 390 kts 277°
2026-05-05 19:56 30.94059 -101.45759 31885 ft 390 kts 277°
2026-05-05 19:57 30.95317 -101.51908 31884 ft 390 kts 277°
2026-05-05 19:57 30.96559 -101.58054 31884 ft 390 kts 277°
2026-05-05 19:58 30.97792 -101.64201 31883 ft 390 kts 277°
2026-05-05 19:58 30.98824 -101.69374 31883 ft 390 kts 277°
2026-05-05 19:59 31.00047 -101.75528 31886 ft 389 kts 277°
2026-05-05 19:59 31.01268 -101.81685 31886 ft 389 kts 277°
2026-05-05 20:00 31.02484 -101.87828 31885 ft 389 kts 276°
2026-05-05 20:00 31.03695 -101.93962 31894 ft 388 kts 276°
2026-05-05 20:01 31.04906 -102.00113 31899 ft 389 kts 276°
2026-05-05 20:01 31.06128 -102.06255 31898 ft 388 kts 276°
2026-05-05 20:02 31.07334 -102.12361 31895 ft 388 kts 276°
2026-05-05 20:02 31.08533 -102.18492 31898 ft 387 kts 276°
2026-05-05 20:03 31.09726 -102.24617 31900 ft 387 kts 276°
2026-05-05 20:03 31.10914 -102.30735 31898 ft 387 kts 276°
2026-05-05 20:04 31.12101 -102.36864 31899 ft 386 kts 276°
2026-05-05 20:04 31.13284 -102.42983 31903 ft 386 kts 276°
2026-05-05 20:05 31.14464 -102.49107 31904 ft 386 kts 276°
2026-05-05 20:05 31.15638 -102.55196 31905 ft 386 kts 275°
2026-05-05 20:06 31.16825 -102.61320 31906 ft 386 kts 276°
2026-05-05 20:06 31.18018 -102.67450 31906 ft 386 kts 275°
2026-05-05 20:07 31.19194 -102.73574 31906 ft 386 kts 275°
2026-05-05 20:07 31.20362 -102.79704 31907 ft 386 kts 275°
2026-05-05 20:08 31.21517 -102.85789 31907 ft 386 kts 275°
2026-05-05 20:08 31.22673 -102.91917 31907 ft 386 kts 275°
2026-05-05 20:09 31.23826 -102.98035 31916 ft 385 kts 275°
2026-05-05 20:09 31.24968 -103.04155 31918 ft 385 kts 275°
2026-05-05 20:10 31.26110 -103.10272 31919 ft 385 kts 275°
2026-05-05 20:10 31.27257 -103.16396 31919 ft 385 kts 275°
2026-05-05 20:11 31.28404 -103.22501 31918 ft 385 kts 275°
2026-05-05 20:11 31.29557 -103.28612 31916 ft 384 kts 275°
2026-05-05 20:12 31.30701 -103.34677 31914 ft 384 kts 275°
2026-05-05 20:12 31.31835 -103.40770 31912 ft 383 kts 275°
2026-05-05 20:13 31.32954 -103.46859 31910 ft 383 kts 274°
2026-05-05 20:13 31.34068 -103.52961 31910 ft 383 kts 274°
2026-05-05 20:14 31.35183 -103.59059 31910 ft 383 kts 274°
2026-05-05 20:14 31.36288 -103.65113 31910 ft 382 kts 274°
2026-05-05 20:15 31.37398 -103.71202 31912 ft 382 kts 274°
2026-05-05 20:15 31.38510 -103.77289 31914 ft 382 kts 274°
2026-05-05 20:16 31.39616 -103.83360 31918 ft 381 kts 274°
2026-05-05 20:16 31.40715 -103.89429 31921 ft 381 kts 274°
2026-05-05 20:17 31.41815 -103.95452 31925 ft 380 kts 274°
2026-05-05 20:17 31.42926 -104.01513 31928 ft 380 kts 274°
2026-05-05 20:18 31.44011 -104.07565 31918 ft 379 kts 274°
2026-05-05 20:18 31.45089 -104.13602 31916 ft 379 kts 274°
2026-05-05 20:19 31.46165 -104.19639 31917 ft 378 kts 274°
2026-05-05 20:19 31.47232 -104.25638 31917 ft 378 kts 274°
2026-05-05 20:20 31.48304 -104.31686 31915 ft 378 kts 274°
2026-05-05 20:20 31.49371 -104.37723 31916 ft 378 kts 274°
2026-05-05 20:21 31.50438 -104.43765 31916 ft 378 kts 273°
2026-05-05 20:21 31.51513 -104.49812 31914 ft 379 kts 274°
2026-05-05 20:22 31.52593 -104.55864 31923 ft 379 kts 274°
2026-05-05 20:22 31.53656 -104.61875 31927 ft 379 kts 273°
2026-05-05 20:23 31.54715 -104.67935 31928 ft 379 kts 273°
2026-05-05 20:23 31.55763 -104.73994 31930 ft 379 kts 273°
2026-05-05 20:24 31.56806 -104.80054 31931 ft 379 kts 273°
2026-05-05 20:24 31.57851 -104.86111 31933 ft 379 kts 273°
2026-05-05 20:25 31.58894 -104.92171 31935 ft 379 kts 273°
2026-05-05 20:25 31.59929 -104.98202 31937 ft 379 kts 272°
2026-05-05 20:26 31.60977 -105.04267 31939 ft 379 kts 272°
2026-05-05 20:26 31.62031 -105.10330 31941 ft 379 kts 272°
2026-05-05 20:27 31.63071 -105.16387 31954 ft 378 kts 272°
2026-05-05 20:27 31.64088 -105.22405 31966 ft 378 kts 272°
2026-05-05 20:28 31.65108 -105.28467 31970 ft 378 kts 272°
2026-05-05 20:28 31.66124 -105.34527 31973 ft 378 kts 272°
2026-05-05 20:29 31.67140 -105.40578 31982 ft 377 kts 272°
2026-05-05 20:29 31.68166 -105.46621 31992 ft 377 kts 272°
2026-05-05 20:30 31.69193 -105.52661 31994 ft 377 kts 271°
2026-05-05 20:30 31.70202 -105.58696 31996 ft 376 kts 271°
2026-05-05 20:31 31.71196 -105.64690 31997 ft 376 kts 271°
2026-05-05 20:31 31.72035 -105.69766 31998 ft 375 kts 271°
2026-05-05 20:32 31.73028 -105.75781 31998 ft 375 kts 271°
2026-05-05 20:32 31.74020 -105.81796 31999 ft 375 kts 271°
2026-05-05 20:33 31.75017 -105.87814 31999 ft 375 kts 271°
2026-05-05 20:33 31.76019 -105.93828 32002 ft 374 kts 271°
2026-05-05 20:34 31.77001 -105.99798 32002 ft 374 kts 271°
2026-05-05 20:34 31.77981 -106.05806 32001 ft 374 kts 271°
2026-05-05 20:35 31.78957 -106.11818 31999 ft 374 kts 271°
2026-05-05 20:35 31.79930 -106.17836 31996 ft 374 kts 271°
2026-05-05 20:36 31.80735 -106.22831 31993 ft 374 kts 271°
2026-05-05 20:36 31.81666 -106.28851 31987 ft 371 kts 268°
2026-05-05 20:37 31.82151 -106.34846 31984 ft 368 kts 266°
2026-05-05 20:37 31.82584 -106.40810 31981 ft 368 kts 266°
2026-05-05 20:38 31.83030 -106.46817 31984 ft 369 kts 266°
2026-05-05 20:38 31.83469 -106.52833 31985 ft 370 kts 266°
2026-05-05 20:39 31.83911 -106.58865 31986 ft 370 kts 266°
2026-05-05 20:39 31.84356 -106.64906 31988 ft 371 kts 266°
2026-05-05 20:40 31.84797 -106.70958 31990 ft 371 kts 266°
2026-05-05 20:40 31.85234 -106.76972 31997 ft 371 kts 266°
2026-05-05 20:41 31.85668 -106.83029 32006 ft 372 kts 266°
2026-05-05 20:41 31.86093 -106.89091 32010 ft 372 kts 266°
2026-05-05 20:42 31.86520 -106.95166 32013 ft 373 kts 266°
2026-05-05 20:42 31.86948 -107.01243 32014 ft 373 kts 266°
2026-05-05 20:43 31.87374 -107.07332 32016 ft 373 kts 266°
2026-05-05 20:43 31.87797 -107.13418 32017 ft 373 kts 266°
2026-05-05 20:44 31.88214 -107.19477 32018 ft 374 kts 265°
2026-05-05 20:44 31.88631 -107.25586 32018 ft 374 kts 265°
2026-05-05 20:45 31.89259 -107.34750 32018 ft 374 kts 265°
2026-05-05 20:45 31.89682 -107.40825 32018 ft 375 kts 265°
2026-05-05 20:46 31.90101 -107.46938 32018 ft 375 kts 265°
2026-05-05 20:46 31.90509 -107.53062 32018 ft 375 kts 265°
2026-05-05 20:47 31.90913 -107.59184 32018 ft 375 kts 265°
2026-05-05 20:47 31.91311 -107.65300 32021 ft 375 kts 265°
2026-05-05 20:48 31.91700 -107.71425 32022 ft 375 kts 265°
2026-05-05 20:48 31.92092 -107.77557 32023 ft 376 kts 265°
2026-05-05 20:49 31.92508 -107.83653 32023 ft 376 kts 265°
2026-05-05 20:49 31.92920 -107.89792 32023 ft 375 kts 265°
2026-05-05 20:50 31.93327 -107.95919 32023 ft 375 kts 265°
2026-05-05 20:50 31.93732 -108.02045 32024 ft 375 kts 265°
2026-05-05 20:51 31.94133 -108.08170 32025 ft 375 kts 265°
2026-05-05 20:51 31.94532 -108.14297 32022 ft 375 kts 265°
2026-05-05 20:52 31.94927 -108.20386 32010 ft 375 kts 265°
2026-05-05 20:52 31.95327 -108.26514 32006 ft 375 kts 265°
2026-05-05 20:53 31.95728 -108.32641 32004 ft 375 kts 265°
2026-05-05 20:53 31.96126 -108.38772 32006 ft 375 kts 265°
2026-05-05 20:54 31.96525 -108.44904 32005 ft 376 kts 265°
2026-05-05 20:54 31.96920 -108.51037 32004 ft 376 kts 265°
2026-05-05 20:55 31.97304 -108.57175 32002 ft 375 kts 265°
2026-05-05 20:55 31.97676 -108.63273 32001 ft 375 kts 265°
2026-05-05 20:56 31.98051 -108.69404 32001 ft 375 kts 265°
2026-05-05 20:56 31.98428 -108.75538 31991 ft 375 kts 265°
2026-05-05 20:57 31.98797 -108.81662 31989 ft 374 kts 265°
2026-05-05 20:57 31.99158 -108.87748 31989 ft 374 kts 265°
2026-05-05 20:58 31.99518 -108.93866 31989 ft 374 kts 265°
2026-05-05 20:58 31.99873 -108.99979 31990 ft 374 kts 265°
2026-05-05 20:59 32.00224 -109.06098 31990 ft 373 kts 265°
2026-05-05 20:59 32.00570 -109.12196 31990 ft 373 kts 265°
2026-05-05 21:00 32.00914 -109.18283 31990 ft 372 kts 264°
2026-05-05 21:00 32.01255 -109.24366 31991 ft 372 kts 264°
2026-05-05 21:01 32.01595 -109.30447 31991 ft 372 kts 264°
2026-05-05 21:01 32.01930 -109.36493 31987 ft 371 kts 264°
2026-05-05 21:02 32.02263 -109.42563 31987 ft 371 kts 264°
2026-05-05 21:02 32.02595 -109.48642 31987 ft 371 kts 264°
2026-05-05 21:03 32.02929 -109.54715 31986 ft 371 kts 265°
2026-05-05 21:03 32.03255 -109.60742 31990 ft 370 kts 265°
2026-05-05 21:04 32.03577 -109.66802 31995 ft 370 kts 264°
2026-05-05 21:04 32.03895 -109.72854 31995 ft 370 kts 264°
2026-05-05 21:05 32.04210 -109.78910 31996 ft 370 kts 264°
2026-05-05 21:05 32.04526 -109.84973 31996 ft 370 kts 264°
2026-05-05 21:06 32.04843 -109.91042 31997 ft 370 kts 264°
2026-05-05 21:06 32.05160 -109.97061 31998 ft 370 kts 264°
2026-05-05 21:07 32.05481 -110.03130 31998 ft 370 kts 264°
2026-05-05 21:07 32.05797 -110.09188 31999 ft 370 kts 264°
2026-05-05 21:08 32.06098 -110.15208 31999 ft 370 kts 264°
2026-05-05 21:08 32.06389 -110.21272 31999 ft 370 kts 264°
2026-05-05 21:09 32.06659 -110.27118 31998 ft 369 kts 264°
2026-05-05 21:09 32.06878 -110.31871 31997 ft 369 kts 264°
2026-05-05 21:10 32.07156 -110.37915 32000 ft 369 kts 264°
2026-05-05 21:10 32.07430 -110.43949 32003 ft 369 kts 264°
2026-05-05 21:11 32.07698 -110.49961 31994 ft 369 kts 264°
2026-05-05 21:11 32.07967 -110.55984 31988 ft 366 kts 264°
2026-05-05 21:12 32.08104 -110.58984 31813 ft 367 kts 264°
2026-05-05 21:12 32.08202 -110.61150 31532 ft 369 kts 264°
2026-05-05 21:12 32.08336 -110.64173 31096 ft 369 kts 264°
2026-05-05 21:12 32.08470 -110.67189 30648 ft 367 kts 264°
2026-05-05 21:13 32.08604 -110.70189 30197 ft 365 kts 264°
2026-05-05 21:13 32.08737 -110.73179 29724 ft 364 kts 264°
2026-05-05 21:13 32.08868 -110.76158 29229 ft 364 kts 264°
2026-05-05 21:13 32.08996 -110.79138 28731 ft 365 kts 264°
2026-05-05 21:14 32.09123 -110.82123 28231 ft 365 kts 264°
2026-05-05 21:14 32.09451 -110.85114 27723 ft 377 kts 275°
2026-05-05 21:14 32.10610 -110.87985 27219 ft 400 kts 292°
2026-05-05 21:14 32.12565 -110.90396 26728 ft 426 kts 309°
2026-05-05 21:15 32.15185 -110.92207 26237 ft 446 kts 322°
2026-05-05 21:15 32.18154 -110.93543 25743 ft 455 kts 329°
2026-05-05 21:15 32.21173 -110.94576 25255 ft 457 kts 333°
2026-05-05 21:15 32.24258 -110.95488 24758 ft 456 kts 335°
2026-05-05 21:16 32.27345 -110.96339 24258 ft 454 kts 335°
2026-05-05 21:16 32.30410 -110.97161 23758 ft 450 kts 336°
2026-05-05 21:16 32.33456 -110.97975 23257 ft 446 kts 336°
2026-05-05 21:16 32.36470 -110.98784 22757 ft 442 kts 336°
2026-05-05 21:17 32.39455 -110.99593 22256 ft 437 kts 336°
2026-05-05 21:17 32.42408 -111.00391 21755 ft 433 kts 337°
2026-05-05 21:17 32.45329 -111.01176 21255 ft 428 kts 337°
2026-05-05 21:17 32.48195 -111.01948 20758 ft 424 kts 337°
2026-05-05 21:18 32.51055 -111.02723 20258 ft 419 kts 338°
2026-05-05 21:18 32.53887 -111.03501 19757 ft 415 kts 338°
2026-05-05 21:18 32.56689 -111.04266 19258 ft 411 kts 338°
2026-05-05 21:18 32.59467 -111.05021 18758 ft 408 kts 338°
2026-05-05 21:19 32.62220 -111.05776 18256 ft 404 kts 338°
2026-05-05 21:19 32.64954 -111.06527 17754 ft 400 kts 339°
2026-05-05 21:19 32.67655 -111.07261 17254 ft 397 kts 339°
2026-05-05 21:19 32.70338 -111.07995 16753 ft 394 kts 339°
2026-05-05 21:20 32.72998 -111.08728 16252 ft 391 kts 340°
2026-05-05 21:20 32.75586 -111.09593 15741 ft 380 kts 331°
2026-05-05 21:20 32.77752 -111.11230 15239 ft 361 kts 313°
2026-05-05 21:20 32.79495 -111.13305 14783 ft 348 kts 306°
2026-05-05 21:21 32.80504 -111.14616 14480 ft 342 kts 305°
2026-05-05 21:21 32.82077 -111.16689 14017 ft 333 kts 305°
2026-05-05 21:21 32.83615 -111.18714 13566 ft 326 kts 306°
2026-05-05 21:21 32.85121 -111.20693 13114 ft 320 kts 306°
2026-05-05 21:22 32.86608 -111.22627 12701 ft 313 kts 306°
2026-05-05 21:22 32.87574 -111.23880 12446 ft 307 kts 306°
2026-05-05 21:22 32.89001 -111.25734 12070 ft 300 kts 306°
2026-05-05 21:22 32.90398 -111.27554 11692 ft 294 kts 306°
2026-05-05 21:23 32.92205 -111.29922 11184 ft 291 kts 307°
2026-05-05 21:23 32.93132 -111.31128 10929 ft 292 kts 307°
2026-05-05 21:23 32.94482 -111.32889 10559 ft 292 kts 307°
2026-05-05 21:23 32.95854 -111.34684 10192 ft 292 kts 308°
2026-05-05 21:24 32.97217 -111.36454 9814 ft 288 kts 308°
2026-05-05 21:24 32.98560 -111.38204 9433 ft 287 kts 308°
2026-05-05 21:24 32.99901 -111.39970 9146 ft 285 kts 308°
2026-05-05 21:24 33.01206 -111.41703 9038 ft 277 kts 308°
2026-05-05 21:25 33.02476 -111.43395 9002 ft 270 kts 308°
2026-05-05 21:25 33.03773 -111.44995 8986 ft 269 kts 316°
2026-05-05 21:25 33.05333 -111.46234 9012 ft 274 kts 326°
2026-05-05 21:25 33.06739 -111.47157 9011 ft 279 kts 329°
2026-05-05 21:26 33.08478 -111.48235 9003 ft 283 kts 330°
2026-05-05 21:26 33.10240 -111.49306 8997 ft 285 kts 330°
2026-05-05 21:26 33.11987 -111.50363 8995 ft 285 kts 330°
2026-05-05 21:26 33.13760 -111.51435 8998 ft 286 kts 330°
2026-05-05 21:27 33.15540 -111.52511 8986 ft 286 kts 330°
2026-05-05 21:27 33.17316 -111.53581 8995 ft 286 kts 330°
2026-05-05 21:27 33.19094 -111.54654 9002 ft 285 kts 330°
2026-05-05 21:27 33.20873 -111.55732 8994 ft 286 kts 330°
2026-05-05 21:28 33.22643 -111.56809 8990 ft 286 kts 330°
2026-05-05 21:28 33.24409 -111.57887 8996 ft 284 kts 330°
2026-05-05 21:28 33.26172 -111.58958 8996 ft 283 kts 330°
2026-05-05 21:28 33.27924 -111.60021 8981 ft 282 kts 330°
2026-05-05 21:29 33.29648 -111.61064 8892 ft 284 kts 330°
2026-05-05 21:29 33.31432 -111.62145 8665 ft 289 kts 330°
2026-05-05 21:29 33.33235 -111.63247 8398 ft 292 kts 330°
2026-05-05 21:29 33.35024 -111.64347 8193 ft 284 kts 330°
2026-05-05 21:30 33.36754 -111.65413 8054 ft 276 kts 330°
2026-05-05 21:30 33.38444 -111.66456 8005 ft 270 kts 330°
2026-05-05 21:30 33.40090 -111.67469 7991 ft 264 kts 330°
2026-05-05 21:30 33.41714 -111.68466 7987 ft 260 kts 330°
2026-05-05 21:31 33.43319 -111.69451 7985 ft 258 kts 330°
2026-05-05 21:31 33.44919 -111.70432 7977 ft 258 kts 330°
2026-05-05 21:31 33.46475 -111.71501 7976 ft 258 kts 325°
2026-05-05 21:31 33.47950 -111.72745 7981 ft 260 kts 321°
2026-05-05 21:32 33.49402 -111.74041 7977 ft 261 kts 321°
2026-05-05 21:32 33.50813 -111.75408 7946 ft 262 kts 316°
2026-05-05 21:32 33.52120 -111.76966 7711 ft 268 kts 310°
2026-05-05 21:32 33.53263 -111.78719 7476 ft 271 kts 303°
2026-05-05 21:33 33.54319 -111.80588 7238 ft 269 kts 301°
2026-05-05 21:33 33.55243 -111.82510 7084 ft 263 kts 295°
2026-05-05 21:33 33.55993 -111.84477 6949 ft 256 kts 291°
2026-05-05 21:33 33.56688 -111.86441 6716 ft 256 kts 291°
2026-05-05 21:34 33.57365 -111.88398 6570 ft 252 kts 290°
2026-05-05 21:34 33.58023 -111.90309 6513 ft 243 kts 290°
2026-05-05 21:34 33.58653 -111.92132 6502 ft 229 kts 290°
2026-05-05 21:34 33.59250 -111.93851 6497 ft 218 kts 290°
2026-05-05 21:35 33.59826 -111.95500 6495 ft 212 kts 290°
2026-05-05 21:35 33.60393 -111.97119 6498 ft 211 kts 290°
2026-05-05 21:35 33.60945 -111.98760 6496 ft 213 kts 288°
2026-05-05 21:35 33.61337 -112.00463 6501 ft 216 kts 282°
2026-05-05 21:36 33.61677 -112.02222 6496 ft 217 kts 281°
2026-05-05 21:36 33.62009 -112.04011 6352 ft 224 kts 281°
2026-05-05 21:36 33.62345 -112.05885 6105 ft 229 kts 279°
2026-05-05 21:36 33.62518 -112.07767 5866 ft 230 kts 272°
2026-05-05 21:37 33.62602 -112.09673 5664 ft 226 kts 271°
2026-05-05 21:37 33.62669 -112.11529 5543 ft 218 kts 270°
2026-05-05 21:37 33.62448 -112.13258 5473 ft 205 kts 248°
2026-05-05 21:37 33.61715 -112.14670 5504 ft 196 kts 233°
2026-05-05 21:38 33.60891 -112.15997 5289 ft 205 kts 232°
2026-05-05 21:38 33.60015 -112.17383 5117 ft 206 kts 232°
2026-05-05 21:38 33.59171 -112.18715 5021 ft 200 kts 231°
2026-05-05 21:38 33.58347 -112.20015 4959 ft 193 kts 231°
2026-05-05 21:39 33.57529 -112.21308 4763 ft 196 kts 231°
2026-05-05 21:39 33.56704 -112.22610 4563 ft 196 kts 231°
2026-05-05 21:39 33.55890 -112.23897 4361 ft 188 kts 231°
2026-05-05 21:39 33.55086 -112.25107 4157 ft 185 kts 229°
2026-05-05 21:40 33.54257 -112.26235 3982 ft 174 kts 226°
2026-05-05 21:40 33.53400 -112.27199 3833 ft 164 kts 220°
2026-05-05 21:40 33.52536 -112.28077 3690 ft 164 kts 219°
2026-05-05 21:40 33.51663 -112.28930 3533 ft 160 kts 218°
2026-05-05 21:41 33.50807 -112.29743 3436 ft 156 kts 217°
2026-05-05 21:41 33.49946 -112.30550 3249 ft 159 kts 217°
2026-05-05 21:41 33.49066 -112.31349 2985 ft 158 kts 216°
2026-05-05 21:41 33.48196 -112.32139 2693 ft 159 kts 216°
2026-05-05 21:42 33.47314 -112.32929 2410 ft 158 kts 217°
2026-05-05 21:42 33.46441 -112.33707 2138 ft 155 kts 219°
2026-05-05 21:42 33.45577 -112.34478 1838 ft 154 kts 221°
2026-05-05 21:42 33.44744 -112.35285 1587 ft 155 kts 221°
2026-05-05 21:43 33.43890 -112.36086 1333 ft 156 kts 220°
2026-05-05 21:43 33.43037 -112.36877 1082 ft 153 kts 219°
2026-05-05 21:43 33.42240 -112.37623 984 ft 136 kts 219°
2026-05-05 21:43 33.41718 -112.38110 980 ft 34 kts 214°
2026-05-05 21:44 33.41585 -112.38228 980 ft 23 kts 218°
2026-05-05 21:44 33.41487 -112.38295 980 ft 11 kts 175°
2026-05-05 21:44 33.41436 -112.38236 980 ft 10 kts 115°
2026-05-05 21:44 33.41464 -112.38174 980 ft 10 kts 39°
2026-05-05 21:45 33.41520 -112.38123 980 ft 11 kts 37°
2026-05-05 21:45 33.41588 -112.38061 980 ft 15 kts 38°
2026-05-05 21:45 33.41676 -112.37974 980 ft 18 kts 38°
2026-05-05 21:45 33.41785 -112.37876 980 ft 21 kts 37°
2026-05-05 21:46 33.41900 -112.37766 980 ft 21 kts 39°
2026-05-05 21:46 33.42017 -112.37657 980 ft 21 kts 38°
2026-05-05 21:46 33.42133 -112.37549 980 ft 21 kts 37°
2026-05-05 21:46 33.42250 -112.37440 980 ft 21 kts 38°
2026-05-05 21:47 33.42367 -112.37333 980 ft 21 kts 38°
2026-05-05 21:47 33.42476 -112.37227 980 ft 20 kts 38°
2026-05-05 21:47 33.42579 -112.37131 980 ft 18 kts 37°
2026-05-05 21:47 33.42676 -112.37042 980 ft 17 kts 38°
2026-05-05 21:48 33.42746 -112.36971 980 ft 8 kts 60°
2026-05-05 21:48 33.42740 -112.36918 980 ft 5 kts 113°
2026-05-05 21:48 33.42740 -112.36890 980 ft 3 kts 85°
2026-05-05 21:48 33.42742 -112.36862 980 ft 4 kts 83°
2026-05-05 21:49 33.42744 -112.36820 980 ft 5 kts 97°
2026-05-05 21:49 33.42727 -112.36787 980 ft 4 kts 146°
2026-05-05 21:49 33.42705 -112.36782 980 ft 2 kts 187°
2026-05-05 21:49 33.42694 -112.36784 980 ft 2 kts 186°
2026-05-05 21:50 33.42685 -112.36785 980 ft 0 kts 185°